Pagrindinis puslapis
METAR-TAF:

METAR-TAF

Oro uostai :

Kermanšahas, Iranas

platuma: 34-16N, ilguma: 047-07E, Aukštis: 1320 m

Dabartinis oras

Ataskaita buvo paskelbta 18 minutes, ne 13:30 UTC
Ramus vėjas
Temperatūra 25°C
Drėgmė 3%
Slėgis 1023 hPa
Matomumas 10 km arba daugiau
nėra debesų žemiau 1500 m ir nėra kamuolinių lietaus debesų

METAR: OICC 291330Z 00000KT CAVOK 25/M22 Q1023 A3021

Laikas: 17:18 (13:48 UTC)


TAF: trūkstamas

Orai ataskaitas ir orų prognozės (METAR, TAF).

turimą stotys yra geltonos ir raudonos taškus žemėlapyje.

Perkelti pele per norėdami pamatyti stoties vardą.

Tada spustelėkite, norėdami matyti oro stebėjimo ir prognozės.

Norėdami pakeisti žemėlapį: spustelėkite ant žalios mygtukų su juodo kryžiaus žemyn,; žalią mygtuką su brūkšneliu, jei norite nutolinti; arba žalių rodyklių gretimoms žemėlapius.


METAR-TAF: